SPFGS EPGY-EPMO

Flight info

Callsign SPFGS
Flight time 0h 27m
Altitude 2000
Route DCT EPMOY DCT EPMOI DCT
Aircraft M7/L-SY/S

Departure

Time 2026-05-07 18:40
Airport Grądy Airfield (EPGY)

Arrival

Time 2026-05-07 19:07
Airport Warsaw Modlin Airport (EPMO)
Time Latitude Longitude Altitude Speed Heading
2026-05-07 18:30 52.83645 21.77481 404 ft 0 kts 295°
2026-05-07 18:34 52.83658 21.77456 406 ft 5 kts 331°
2026-05-07 18:35 52.83672 21.77453 405 ft 0 kts
2026-05-07 18:37 52.83673 21.77453 405 ft 0 kts
2026-05-07 18:38 52.83707 21.77460 405 ft 8 kts 41°
2026-05-07 18:38 52.83709 21.77576 407 ft 13 kts 95°
2026-05-07 18:38 52.83701 21.77736 410 ft 15 kts 95°
2026-05-07 18:38 52.83687 21.77938 407 ft 20 kts 97°
2026-05-07 18:39 52.83671 21.78178 406 ft 19 kts 97°
2026-05-07 18:39 52.83658 21.78312 404 ft 1 kts 17°
2026-05-07 18:39 52.83667 21.78301 404 ft 0 kts 264°
2026-05-07 18:39 52.83681 21.78065 408 ft 51 kts 273°
2026-05-07 18:40 52.83725 21.77340 590 ft 71 kts 284°
2026-05-07 18:40 52.83810 21.76499 890 ft 77 kts 273°
2026-05-07 18:40 52.83508 21.75695 1166 ft 92 kts 237°
2026-05-07 18:40 52.83111 21.74851 1378 ft 95 kts 237°
2026-05-07 18:41 52.82734 21.73942 1538 ft 100 kts 239°
2026-05-07 18:41 52.82331 21.73012 1667 ft 102 kts 250°
2026-05-07 18:41 52.82056 21.71880 1694 ft 108 kts 252°
2026-05-07 18:41 52.81790 21.70742 1765 ft 105 kts 253°
2026-05-07 18:42 52.81518 21.69636 1856 ft 102 kts 250°
2026-05-07 18:42 52.81220 21.68547 1875 ft 109 kts 249°
2026-05-07 18:42 52.80917 21.67396 1910 ft 107 kts 253°
2026-05-07 18:42 52.80663 21.66272 1989 ft 105 kts 254°
2026-05-07 18:43 52.80393 21.65114 1991 ft 107 kts 252°
2026-05-07 18:43 52.80141 21.63951 1964 ft 110 kts 256°
2026-05-07 18:43 52.79908 21.62757 1981 ft 108 kts 258°
2026-05-07 18:43 52.79675 21.61596 1964 ft 109 kts 253°
2026-05-07 18:44 52.79398 21.60434 1953 ft 108 kts 251°
2026-05-07 18:44 52.79107 21.59285 1953 ft 109 kts 251°
2026-05-07 18:44 52.78817 21.58124 1950 ft 109 kts 250°
2026-05-07 18:44 52.78532 21.56963 1947 ft 109 kts 251°
2026-05-07 18:45 52.78250 21.55821 1952 ft 107 kts 251°
2026-05-07 18:45 52.77965 21.54663 1948 ft 110 kts 251°
2026-05-07 18:45 52.77678 21.53501 1944 ft 109 kts 251°
2026-05-07 18:45 52.77392 21.52338 1943 ft 110 kts 251°
2026-05-07 18:46 52.77106 21.51165 1943 ft 110 kts 251°
2026-05-07 18:46 52.76822 21.49991 1943 ft 110 kts 251°
2026-05-07 18:46 52.76540 21.48812 1947 ft 111 kts 252°
2026-05-07 18:46 52.76258 21.47623 1943 ft 111 kts 251°
2026-05-07 18:47 52.75973 21.46438 1949 ft 111 kts 252°
2026-05-07 18:47 52.75684 21.45235 1943 ft 114 kts 252°
2026-05-07 18:47 52.75395 21.44029 1942 ft 112 kts 251°
2026-05-07 18:47 52.75111 21.42826 1939 ft 113 kts 252°
2026-05-07 18:48 52.74828 21.41626 1947 ft 111 kts 251°
2026-05-07 18:48 52.74547 21.40426 1932 ft 112 kts 252°
2026-05-07 18:48 52.74266 21.39227 1945 ft 111 kts 252°
2026-05-07 18:48 52.73986 21.38031 1939 ft 112 kts 252°
2026-05-07 18:49 52.73706 21.36828 1940 ft 112 kts 252°
2026-05-07 18:49 52.73425 21.35632 1942 ft 111 kts 252°
2026-05-07 18:49 52.73150 21.34452 1946 ft 110 kts 252°
2026-05-07 18:49 52.72872 21.33265 1937 ft 111 kts 252°
2026-05-07 18:50 52.72509 21.32143 1946 ft 112 kts 239°
2026-05-07 18:50 52.72083 21.31061 1944 ft 113 kts 240°
2026-05-07 18:50 52.71660 21.29976 1946 ft 112 kts 240°
2026-05-07 18:50 52.71244 21.28907 1941 ft 112 kts 240°
2026-05-07 18:51 52.70821 21.27819 1944 ft 111 kts 240°
2026-05-07 18:51 52.70665 21.26629 1933 ft 107 kts 269°
2026-05-07 18:51 52.70410 21.25453 1942 ft 110 kts 250°
2026-05-07 18:51 52.70132 21.24274 1949 ft 111 kts 251°
2026-05-07 18:52 52.69838 21.23091 1949 ft 112 kts 251°
2026-05-07 18:52 52.69540 21.21909 1946 ft 113 kts 250°
2026-05-07 18:52 52.69236 21.20721 1942 ft 112 kts 250°
2026-05-07 18:52 52.68932 21.19529 1944 ft 113 kts 250°
2026-05-07 18:53 52.68626 21.18333 1948 ft 114 kts 250°
2026-05-07 18:53 52.68320 21.17141 1951 ft 112 kts 250°
2026-05-07 18:53 52.68015 21.15958 1941 ft 112 kts 250°
2026-05-07 18:53 52.67711 21.14783 1943 ft 111 kts 250°
2026-05-07 18:54 52.67411 21.13614 1945 ft 110 kts 250°
2026-05-07 18:54 52.67110 21.12442 1954 ft 112 kts 250°
2026-05-07 18:54 52.66808 21.11269 1949 ft 110 kts 250°
2026-05-07 18:54 52.66508 21.10105 1953 ft 111 kts 250°
2026-05-07 18:55 52.66204 21.08929 1951 ft 112 kts 250°
2026-05-07 18:55 52.65900 21.07753 1958 ft 112 kts 249°
2026-05-07 18:55 52.65598 21.06583 1957 ft 111 kts 250°
2026-05-07 18:55 52.65294 21.05412 1957 ft 112 kts 250°
2026-05-07 18:56 52.64990 21.04231 1958 ft 112 kts 250°
2026-05-07 18:56 52.64684 21.03042 1948 ft 114 kts 250°
2026-05-07 18:56 52.64374 21.01850 1960 ft 113 kts 250°
2026-05-07 18:56 52.64066 21.00661 1962 ft 114 kts 250°
2026-05-07 18:57 52.63759 20.99475 1958 ft 112 kts 249°
2026-05-07 18:57 52.63452 20.98288 1961 ft 113 kts 250°
2026-05-07 18:57 52.63142 20.97096 1970 ft 113 kts 249°
2026-05-07 18:57 52.62833 20.95904 1969 ft 114 kts 250°
2026-05-07 18:58 52.62520 20.94699 1967 ft 114 kts 249°
2026-05-07 18:58 52.62208 20.93496 1968 ft 114 kts 250°
2026-05-07 18:58 52.61897 20.92306 1968 ft 113 kts 250°
2026-05-07 18:58 52.61588 20.91112 1970 ft 114 kts 250°
2026-05-07 18:59 52.61277 20.89916 1973 ft 113 kts 250°
2026-05-07 18:59 52.60966 20.88724 1973 ft 113 kts 250°
2026-05-07 18:59 52.60657 20.87541 1967 ft 112 kts 249°
2026-05-07 18:59 52.60352 20.86370 1971 ft 111 kts 250°
2026-05-07 19:00 52.60052 20.85218 1966 ft 111 kts 250°
2026-05-07 19:00 52.59744 20.84043 1968 ft 112 kts 249°
2026-05-07 19:00 52.59443 20.82877 1960 ft 110 kts 251°
2026-05-07 19:00 52.59141 20.81718 1961 ft 111 kts 250°
2026-05-07 19:01 52.58818 20.80535 1779 ft 111 kts 248°
2026-05-07 19:01 52.58488 20.79404 1509 ft 105 kts 247°
2026-05-07 19:01 52.58127 20.78361 1406 ft 104 kts 237°
2026-05-07 19:01 52.57613 20.77538 1350 ft 101 kts 221°
2026-05-07 19:02 52.57085 20.76817 1332 ft 98 kts 221°
2026-05-07 19:02 52.56554 20.76108 1287 ft 99 kts 220°
2026-05-07 19:02 52.56007 20.75385 1231 ft 98 kts 222°
2026-05-07 19:02 52.55451 20.74729 1210 ft 98 kts 217°
2026-05-07 19:03 52.54830 20.74310 1218 ft 97 kts 189°
2026-05-07 19:03 52.54165 20.74109 1188 ft 98 kts 190°
2026-05-07 19:03 52.53497 20.73887 1182 ft 98 kts 192°
2026-05-07 19:03 52.52839 20.73661 1193 ft 96 kts 191°
2026-05-07 19:04 52.52178 20.73472 1182 ft 95 kts 188°
2026-05-07 19:04 52.51517 20.73276 1161 ft 100 kts 190°
2026-05-07 19:04 52.50833 20.73104 1221 ft 102 kts 192°
2026-05-07 19:04 52.50143 20.72844 1312 ft 100 kts 194°
2026-05-07 19:05 52.49468 20.72472 1351 ft 103 kts 206°
2026-05-07 19:05 52.48810 20.71946 1371 ft 107 kts 206°
2026-05-07 19:05 52.48128 20.71413 1386 ft 111 kts 206°
2026-05-07 19:05 52.47405 20.71016 1474 ft 106 kts 182°
2026-05-07 19:06 52.46655 20.70963 1494 ft 110 kts 182°
2026-05-07 19:06 52.45532 20.69651 1043 ft 95 kts 265°
2026-05-07 19:06 52.45430 20.68627 783 ft 84 kts 254°
2026-05-07 19:07 52.45354 20.67766 573 ft 66 kts 270°
2026-05-07 19:07 52.45297 20.67089 402 ft 55 kts 268°
2026-05-07 19:07 52.45243 20.66520 333 ft 47 kts 267°
2026-05-07 19:07 52.45216 20.66097 333 ft 30 kts 255°
2026-05-07 19:08 52.45140 20.65494 406 ft 73 kts 273°
2026-05-07 19:08 52.45104 20.64569 623 ft 89 kts 268°
2026-05-07 19:08 52.45035 20.63540 898 ft 93 kts 270°
2026-05-07 19:08 52.45393 20.62834 1127 ft 88 kts 358°
2026-05-07 19:09 52.46029 20.62816 1278 ft 91 kts
2026-05-07 19:09 52.46502 20.63440 1344 ft 91 kts 67°
2026-05-07 19:09 52.46565 20.64499 1268 ft 97 kts 84°
2026-05-07 19:09 52.46573 20.65599 1217 ft 96 kts 84°
2026-05-07 19:10 52.46672 20.66564 1303 ft 85 kts 75°
2026-05-07 19:10 52.46542 20.67460 1164 ft 89 kts 144°
2026-05-07 19:10 52.45955 20.67743 828 ft 77 kts 170°
2026-05-07 19:10 52.45487 20.67741 568 ft 61 kts 203°
2026-05-07 19:11 52.45326 20.67413 437 ft 58 kts 262°
2026-05-07 19:11 52.45271 20.66823 331 ft 45 kts 267°
2026-05-07 19:11 52.45230 20.66330 332 ft 28 kts 259°
2026-05-07 19:11 52.45208 20.66133 331 ft 24 kts 258°
2026-05-07 19:12 52.45069 20.66042 333 ft 19 kts 160°
2026-05-07 19:12 52.44951 20.66113 333 ft 17 kts 160°
2026-05-07 19:12 52.44882 20.66235 333 ft 16 kts 86°
2026-05-07 19:12 52.44894 20.66358 333 ft 16 kts 78°
2026-05-07 19:13 52.44911 20.66528 331 ft 16 kts 80°
2026-05-07 19:13 52.44928 20.66705 333 ft 16 kts 81°
2026-05-07 19:13 52.44932 20.66838 333 ft 9 kts 147°
2026-05-07 19:13 52.44867 20.66854 333 ft 9 kts 171°
2026-05-07 19:14 52.44854 20.66869 333 ft 0 kts 339°